Snowfall_Accumulation
0.0 0.0 0.0 0.0 0.1 0.0 0.1 0.0 1.4 0.0 0.0 0.0 0.0 0.0 0.0 0.0 0.0 0.0 0.0 0.0 0.0 0.0 0.0 0.0 0.0 0.0 0.0 0.0 0.0 0.0 0.0 0.0 0.0 0.0 0.0 0.0 0.0 0.0 0.0 0.0 0.0 0.0 0.0 0.0
2.7 0.0 0.0 0.0 0.0 0.0 0.0 0.0 0.0 0.0 0.0 0.0 0.0 0.0 0.0 0.0 0.0 0.0 0.0 0.0 0.0 0.0 0.0 0.0 0.0 0.0 0.0 0.0 0.0 0.0 0.0 0.0 0.0 0.0 0.0 0.0 0.0 0.0 0.0 0.0 0.0 0.0 0.0 0.0
0.4 0.0 0.0 1.0 0.1 0.0 0.0 0.0 0.0 0.2 0.0 0.0 0.0 0.0 0.0 0.0 0.0 0.0 0.0 0.0 0.0 0.0 0.0 0.0 0.0 0.0 0.0 0.0 0.1 0.0 0.0 0.0 0.0 0.0 0.0 0.0 0.0 0.0 0.0 0.0 0.0 0.0 0.0 0.0
1.6 0.2 6.9 0.1 0.0 0.0 0.0 0.0 0.0 0.0 0.0 0.0 0.0 0.0 0.0 0.0 0.0 0.0 0.0 0.0 0.0 0.0 0.0 0.0 0.0 0.0 0.0 0.0 0.0 0.0 0.0 0.0 0.0 0.0 0.0 0.0 0.0 0.0 0.0 0.0 0.0 0.0 0.0 0.0
4.6 0.8 0.0 0.0 0.0 0.0 0.0 0.0 0.0 0.0 0.0 0.0 0.0 0.0 0.0 0.0 0.0 0.0 0.0 0.0 0.0 0.0 0.0 0.0 0.0 0.0 0.0 0.0 0.0 0.0 0.0 0.0 0.0 0.0 0.0 0.0 0.0 0.0 0.0 0.0 0.1 0.0 0.0 0.0
2.8 2.7 2.1 0.0 0.0 0.0 0.0 0.3 0.0 0.1 0.1 0.0 0.0 1.5 0.1 0.0 0.0 0.0 0.0 0.0 0.0 0.0 0.0 0.0 0.0 0.0 0.0 0.0 0.0 0.0 0.0 0.0 0.0 0.0 0.0 0.0 0.0 0.0 0.0 0.0 0.0 0.3 0.0 0.0
2.8 7.2 1.5 0.0 0.0 0.0 2.3 0.2 0.0 0.0 0.0 0.1 0.9 0.2 0.0 0.0 0.0 0.0 0.0 0.0 0.0 0.0 0.0 0.0 0.0 0.0 0.0 0.0 0.0 0.0 0.0 0.0 0.0 0.0 0.0 0.0 0.0 0.0 0.0 0.0 0.0 0.1 0.1 0.1
2.2 8.0 7.4 0.0 0.0 1.0 0.4 0.0 0.0 0.0 0.0 0.0 0.0 0.0 0.0 0.0 0.0 0.0 0.0 0.0 0.0 0.0 0.0 0.0 0.0 0.0 0.0 0.0 0.0 0.0 0.0 0.0 0.0 0.0 0.0 0.0 0.0 0.0 0.0 0.1 0.1 0.3 0.3 0.9
0.4 1.1 0.0 0.0 0.1 0.0 0.0 0.0 0.0 0.0 0.0 0.0 0.0 0.0 0.0 0.0 0.0 0.0 0.0 0.0 0.0 0.0 0.0 0.0 0.0 0.0 0.0 0.0 0.0 0.0 0.0 0.0 0.0 0.0 0.0 0.0 0.1 0.1 0.6 0.2 0.8 0.5 1.3 1.4
0.6 0.0 0.0 0.0 0.0 0.0 0.0 0.0 0.0 0.0 0.0 0.0 0.0 0.0 0.0 0.0 0.0 0.0 0.0 0.0 0.0 0.0 0.0 0.0 0.0 0.0 0.0 0.0 0.0 0.0 0.0 0.0 0.0 0.0 0.1 0.1 0.4 0.5 0.9 1.1 1.4 1.4 1.7 2.0
0.6 0.0 0.0 0.0 0.0 0.0 0.0 0.0 0.0 0.0 0.0 0.0 0.0 0.0 0.0 0.0 0.0 0.0 0.0 0.0 0.0 0.0 0.0 0.0 0.0 0.0 0.0 0.0 0.0 0.0 0.0 0.0 0.0 0.0 0.0 0.2 0.2 0.5 0.9 0.5 1.4 2.5 2.5 2.6
1.2 0.0 0.0 0.0 0.0 0.0 0.0 0.0 0.0 0.0 0.0 0.0 0.0 0.0 0.0 0.0 0.0 0.0 0.0 0.0 0.0 0.0 0.0 0.0 0.0 0.0 0.0 0.0 0.0 0.0 0.0 0.1 0.4 0.7 0.7 0.9 1.5 2.4 nan nan nan nan nan 2.3
0.1 0.0 0.0 0.0 0.0 0.0 0.0 0.0 0.0 0.0 0.0 0.0 0.0 0.0 0.0 0.0 0.0 nan 0.0 0.0 0.0 0.0 0.0 0.0 0.0 0.0 0.0 0.0 0.1 0.2 0.4 0.5 1.2 1.4 1.6 1.9 2.3 2.8 5.0 3.0 nan nan nan nan
0.0 0.0 0.3 0.1 0.0 0.0 0.0 0.0 0.0 0.0 0.0 0.0 0.0 0.0 0.0 0.0 0.0 0.0 0.0 0.0 0.0 0.0 0.0 0.0 0.1 0.1 0.1 0.2 0.4 0.8 0.8 0.5 1.8 2.2 2.7 2.9 2.6 2.7 3.3 4.3 5.8 5.1 nan nan
0.0 0.0 0.0 0.0 0.0 0.0 0.0 0.0 0.0 0.0 0.0 0.0 0.0 0.0 0.0 0.1 0.0 0.0 0.0 0.0 0.0 0.0 0.1 0.1 0.1 0.2 0.1 0.2 0.4 0.6 1.0 1.6 1.7 1.7 1.9 2.0 2.0 2.1 2.5 3.5 3.9 3.4 2.8 1.7
0.0 0.0 0.0 0.0 0.0 0.0 0.0 0.0 0.0 0.0 0.0 0.0 0.1 0.1 0.1 0.0 0.0 0.0 0.0 0.1 0.6 0.6 0.2 1.3 0.3 0.1 0.0 0.0 0.1 0.3 1.1 0.3 1.0 1.6 1.9 1.9 1.9 2.4 2.7 3.3 3.5 3.6 3.7 3.0
0.0 0.0 0.0 0.0 0.0 0.0 0.0 0.0 0.0 0.1 0.1 0.2 0.2 0.1 0.1 0.1 0.1 0.2 0.1 0.1 0.2 0.3 0.1 0.2 0.5 0.2 0.3 0.3 0.5 1.3 1.3 1.5 0.1 1.0 1.2 1.7 1.9 2.4 2.3 2.8 3.0 3.0 3.6 5.0
0.0 0.0 0.0 0.0 0.0 0.0 0.1 0.1 0.1 0.1 0.2 0.1 0.1 0.2 1.5 0.9 0.3 0.2 0.2 0.2 0.5 0.8 0.3 1.0 2.7 3.6 3.4 1.3 1.1 1.2 1.3 1.3 1.4 2.0 1.4 1.8 1.7 1.4 2.2 2.5 2.5 2.7 3.0 3.1
0.0 0.0 0.0 0.0 0.1 0.1 0.2 0.1 0.1 0.1 0.4 0.3 1.1 1.3 1.4 1.7 0.1 0.2 0.4 3.7 5.5 1.9 4.6 2.3 1.5 1.5 0.7 1.5 0.3 1.0 1.2 2.0 1.8 1.7 1.3 3.7 2.6 1.7 2.5 2.9 2.4 2.9 2.4 3.8
0.0 0.0 0.1 0.1 0.1 0.2 0.2 0.1 0.1 0.0 0.0 0.1 2.9 4.3 3.1 5.8 4.7 5.5 2.6 2.5 1.7 2.1 1.4 0.7 0.4 0.3 1.2 0.6 1.1 1.2 1.6 2.3 1.9 2.3 3.0 1.9 3.1 5.0 3.0 4.6 2.3 3.6 7.2 6.5
0.1 0.1 0.1 0.1 0.1 0.1 1.2 2.1 1.8 2.0 3.2 5.0 4.8 6.9 7.1 5.5 5.7 7.0 4.1 1.4 1.3 1.1 0.1 0.0 0.2 0.5 0.5 0.7 1.0 1.8 3.1 4.9 4.5 3.3 3.2 5.2 7.5 4.6 5.7 6.1 5.7 7.3 9.8 7.4
0.0 0.1 1.4 1.9 1.0 1.1 1.9 0.2 0.2 3.4 3.5 5.4 8.3 9.4 8.4 3.3 4.4 3.4 5.0 1.2 1.2 1.2 0.9 0.7 0.3 1.2 1.3 3.4 0.8 3.1 2.0 2.2 3.4 3.9 4.5 6.8 7.4 11.0 9.9 7.8 8.2 8.9 9.1 10.6
0.0 0.0 0.1 1.2 1.0 0.1 0.2 0.2 3.8 3.0 6.6 6.6 8.4 4.9 2.0 1.1 0.8 1.3 1.5 0.0 0.3 1.9 0.4 1.1 3.5 4.3 4.5 3.8 3.3 4.7 5.1 5.6 5.9 5.8 6.1 9.5 8.6 14.5 7.7 7.1 7.9 7.7 12.0 8.0
0.0 0.0 0.0 0.0 0.0 0.0 0.0 0.0 0.0 0.1 5.1 2.3 3.8 5.1 0.1 1.6 2.1 0.3 0.3 3.2 3.7 8.3 5.3 2.9 5.3 4.7 5.1 6.1 6.5 8.2 7.5 8.6 9.4 10.2 5.2 7.8 13.1 10.0 7.7 11.3 7.4 7.7 9.1 8.5
0.0 0.0 0.0 0.2 0.0 0.4 0.0 0.0 0.1 0.1 0.0 0.1 0.0 0.0 0.0 0.3 2.1 0.8 1.6 2.1 4.4 2.6 3.7 4.4 5.0 5.4 9.2 9.8 9.7 10.1 10.2 9.3 10.1 12.3 9.1 13.1 11.6 16.5 12.8 9.6 12.3 11.7 12.6 10.5
0.0 0.4 0.4 0.0 0.2 0.3 0.3 0.2 0.4 0.3 0.3 1.3 0.6 3.3 1.6 1.2 1.1 1.4 2.2 4.1 1.9 4.6 3.0 8.7 12.5 12.1 11.1 8.3 9.7 10.8 8.3 6.1 8.7 8.6 10.1 10.0 9.7 8.4 10.4 9.1 11.8 14.4 17.7 18.9
0.3 0.1 0.2 0.1 0.1 0.1 0.3 0.5 0.7 1.2 1.5 2.8 3.0 2.4 1.7 2.8 4.1 3.6 5.8 7.1 7.6 9.3 9.6 11.8 9.9 8.1 6.0 10.3 8.8 7.7 7.4 7.8 8.5 6.8 11.4 13.2 12.9 16.8 16.0 15.0 15.2 16.1 15.9 15.1
Water_Equivalent
0.00 0.00 0.00 0.00 0.01 0.01 0.01 0.00 0.30 0.01 0.00 0.00 0.00 0.00 0.00 0.00 0.00 0.00 0.00 0.00 0.00 0.00 0.00 0.00 0.00 0.00 0.00 0.00 0.00 0.00 0.00 0.00 0.00 0.00 0.00 0.00 0.00 0.00 0.00 0.00 0.00 0.00 0.00 0.00
0.95 0.00 0.00 0.00 0.00 0.00 0.00 0.00 0.00 0.00 0.00 0.00 0.00 0.00 0.00 0.00 0.00 0.00 0.00 0.00 0.00 0.00 0.00 0.00 0.00 0.00 0.00 0.00 0.01 0.00 0.00 0.00 0.00 0.00 0.00 0.00 0.00 0.00 0.00 0.00 0.00 0.00 0.00 0.00
0.09 0.00 0.00 0.20 0.03 0.00 0.00 0.00 0.00 0.04 0.00 0.00 0.00 0.00 0.00 0.00 0.00 0.00 0.00 0.00 0.00 0.00 0.00 0.00 0.00 0.00 0.00 0.01 0.01 0.01 0.00 0.00 0.00 0.00 0.00 0.00 0.00 0.00 0.00 0.00 0.00 0.00 0.00 0.00
0.42 0.06 1.03 0.01 0.00 0.00 0.00 0.00 0.00 0.00 0.00 0.00 0.00 0.00 0.00 0.00 0.00 0.00 0.00 0.00 0.00 0.00 0.00 0.00 0.00 0.00 0.00 0.01 0.02 0.01 0.00 0.00 0.00 0.00 0.00 0.00 0.00 0.00 0.01 0.01 0.00 0.00 0.00 0.00
0.96 0.18 0.00 0.00 0.00 0.00 0.00 0.00 0.00 0.01 0.00 0.00 0.00 0.00 0.00 0.00 0.00 0.00 0.00 0.00 0.00 0.00 0.00 0.00 0.00 0.00 0.00 0.01 0.00 0.00 0.01 0.01 0.01 0.01 0.01 0.01 0.01 0.01 0.01 0.01 0.02 0.02 0.01 0.00
0.62 0.43 0.33 0.00 0.00 0.00 0.00 0.06 0.00 0.04 0.01 0.01 0.00 0.31 0.03 0.00 0.00 0.00 0.00 0.00 0.00 0.00 0.00 0.00 0.00 0.00 0.00 0.00 0.00 0.00 0.01 0.01 0.01 0.01 0.01 0.01 0.01 0.01 0.01 0.01 0.01 0.09 0.01 0.01
0.66 1.33 0.30 0.00 0.00 0.00 0.38 0.05 0.01 0.01 0.01 0.02 0.21 0.06 0.00 0.00 0.00 0.00 0.00 0.00 0.00 0.00 0.00 0.00 0.00 0.00 0.00 0.00 0.00 0.00 0.00 0.01 0.01 0.01 0.01 0.00 0.01 0.01 0.01 0.01 0.01 0.05 0.04 0.03
0.40 1.37 1.09 0.00 0.00 0.19 0.10 0.00 0.00 0.00 0.00 0.01 0.00 0.00 0.00 0.00 0.00 0.00 0.00 0.00 0.00 0.00 0.00 0.00 0.00 0.00 0.00 0.00 0.00 0.00 0.00 0.00 0.01 0.01 0.00 0.00 0.01 0.01 0.01 0.02 0.03 0.07 0.08 0.25
0.09 0.24 0.00 0.00 0.02 0.00 0.00 0.01 0.01 0.00 0.00 0.00 0.00 0.00 0.00 0.00 0.00 0.00 0.00 0.00 0.00 0.00 0.00 0.00 0.00 0.00 0.00 0.00 0.00 0.00 0.00 0.00 0.00 0.01 0.00 0.00 0.02 0.03 0.17 0.03 0.19 0.10 0.29 0.32
0.13 0.00 0.00 0.00 0.00 0.00 0.00 0.00 0.00 0.00 0.00 0.00 0.00 0.00 0.00 0.00 0.00 0.00 0.00 0.00 0.00 0.00 0.00 0.00 0.00 0.00 0.00 0.00 0.00 0.00 0.00 0.00 0.00 0.01 0.02 0.02 0.11 0.15 0.22 0.26 0.32 0.30 0.35 0.43
0.15 0.01 0.00 0.00 0.00 0.00 0.00 0.00 0.00 0.00 0.00 0.00 0.00 0.00 0.00 0.00 0.00 0.00 0.00 0.00 0.00 0.00 0.00 0.00 0.00 0.00 0.00 0.00 0.00 0.00 0.00 0.00 0.00 0.00 0.01 0.07 0.05 0.14 0.21 0.11 0.31 0.49 0.53 0.54
0.30 0.00 0.01 0.01 0.00 0.00 0.00 0.00 0.00 0.00 0.00 0.00 0.00 0.00 0.00 0.00 0.00 0.00 0.00 0.00 0.00 0.00 0.00 0.00 0.00 0.00 0.00 0.00 0.00 0.00 0.01 0.02 0.11 0.16 0.16 0.18 0.31 0.49 nan nan nan nan nan 0.50
0.05 0.00 0.00 0.00 0.00 0.00 0.00 0.00 0.00 0.00 0.00 0.00 0.00 0.00 0.00 0.00 0.00 nan 0.00 0.00 0.00 0.00 0.00 0.00 0.00 0.00 0.00 0.01 0.02 0.04 0.07 0.08 0.24 0.31 0.31 0.37 0.45 0.52 0.93 0.66 nan nan nan nan
0.00 0.00 0.05 0.02 0.01 0.00 0.00 0.00 0.00 0.00 0.00 0.00 0.00 0.00 0.00 0.01 0.00 0.00 0.00 0.00 0.00 0.00 0.00 0.01 0.05 0.03 0.03 0.04 0.08 0.15 0.14 0.17 0.37 0.46 0.57 0.61 0.52 0.54 0.70 0.88 1.22 1.15 nan nan
0.00 0.00 0.00 0.00 0.00 0.00 0.00 0.00 0.00 0.00 0.00 0.00 0.00 0.01 0.01 0.01 0.00 0.00 0.00 0.00 0.00 0.01 0.03 0.04 0.03 0.03 0.02 0.04 0.07 0.11 0.20 0.34 0.35 0.39 0.48 0.46 0.47 0.47 0.55 0.72 0.78 0.67 0.57 0.37
0.00 0.00 0.00 0.00 0.00 0.00 0.00 0.00 0.00 0.00 0.00 0.01 0.01 0.02 0.02 0.00 0.00 0.00 0.01 0.02 0.12 0.12 0.03 0.33 0.05 0.02 0.01 0.01 0.03 0.06 0.24 0.10 0.23 0.36 0.44 0.45 0.45 0.52 0.58 0.66 0.70 0.72 0.69 0.60
0.00 0.00 0.00 0.00 0.00 0.00 0.00 0.00 0.01 0.02 0.02 0.03 0.03 0.01 0.01 0.02 0.02 0.03 0.02 0.02 0.05 0.08 0.03 0.04 0.10 0.05 0.09 0.06 0.10 0.31 0.29 0.35 0.04 0.23 0.28 0.35 0.40 0.52 0.47 0.56 0.62 0.62 0.79 1.22
0.00 0.00 0.00 0.00 0.00 0.01 0.01 0.01 0.02 0.02 0.03 0.02 0.02 0.06 0.37 0.21 0.05 0.04 0.05 0.04 0.12 0.21 0.07 0.22 0.62 0.81 0.77 0.28 0.19 0.25 0.30 0.31 0.34 0.43 0.29 0.42 0.38 0.33 0.49 0.55 0.55 0.58 0.66 0.69
0.00 0.00 0.00 0.01 0.03 0.03 0.03 0.03 0.03 0.02 0.09 0.06 0.29 0.34 0.36 0.45 0.03 0.04 0.09 1.00 1.45 0.44 0.94 0.52 0.49 0.38 0.15 0.34 0.08 0.23 0.29 0.43 0.38 0.36 0.29 1.20 0.61 0.38 0.55 0.66 0.53 0.66 0.52 0.76
0.00 0.00 0.02 0.02 0.02 0.04 0.04 0.02 0.01 0.01 0.01 0.02 0.77 1.11 0.75 1.47 1.28 1.43 0.68 0.57 0.34 0.54 0.32 0.16 0.08 0.07 0.25 0.13 0.32 0.25 0.36 0.55 0.40 0.56 0.74 0.39 0.75 1.25 0.74 1.50 0.52 0.86 1.80 1.49
0.01 0.02 0.02 0.02 0.02 0.02 0.35 0.62 0.46 0.46 0.83 1.41 1.31 1.75 1.64 1.25 1.37 1.76 0.94 0.34 0.26 0.22 0.03 0.01 0.06 0.14 0.13 0.16 0.24 0.43 0.78 1.25 1.15 0.73 0.70 1.34 1.97 1.15 1.44 1.60 1.45 1.91 2.47 1.78
0.01 0.01 0.39 0.47 0.26 0.27 0.47 0.07 0.05 0.80 0.77 1.32 2.13 2.41 1.76 0.60 0.88 0.70 1.04 0.26 0.31 0.39 0.23 0.18 0.09 0.40 0.40 1.13 0.20 0.85 0.47 0.53 0.80 0.88 1.01 1.69 1.77 2.61 2.46 1.95 1.98 2.27 2.34 2.62
0.00 0.00 0.02 0.30 0.23 0.02 0.04 0.05 0.93 0.70 1.46 1.33 1.66 0.95 0.43 0.25 0.19 0.32 0.35 0.00 0.09 0.61 0.12 0.32 1.14 1.40 1.49 1.09 0.94 1.27 1.34 1.45 1.49 1.36 1.44 2.38 2.13 3.60 1.63 1.56 1.86 1.78 2.92 1.80
0.01 0.00 0.01 0.01 0.01 0.00 0.01 0.01 0.00 0.02 1.07 0.42 0.73 1.13 0.03 0.44 0.66 0.09 0.09 1.06 1.23 2.82 1.77 0.88 1.68 1.54 1.68 1.75 1.70 2.08 1.84 2.09 2.20 2.43 1.10 2.52 3.53 2.41 1.72 2.68 1.50 1.75 2.07 1.91
0.01 0.01 0.01 0.04 0.00 0.11 0.01 0.00 0.02 0.02 0.01 0.02 0.00 0.01 0.00 0.09 0.57 0.23 0.49 0.63 1.45 0.81 1.00 1.44 1.65 1.80 2.55 2.65 2.44 2.43 2.37 2.02 2.28 2.69 1.77 2.88 2.60 3.90 3.10 2.17 2.69 2.72 2.82 2.38
0.00 0.10 0.09 0.01 0.06 0.07 0.08 0.06 0.09 0.08 0.08 0.35 0.16 1.02 0.50 0.34 0.31 0.37 0.61 1.26 0.49 1.49 0.72 2.28 3.21 3.10 2.83 1.93 2.27 2.38 1.68 1.14 1.68 1.64 1.95 1.91 1.94 1.57 1.99 1.79 2.55 3.36 4.22 4.63
0.08 0.02 0.06 0.04 0.03 0.05 0.08 0.10 0.18 0.28 0.44 0.78 0.79 0.68 0.48 0.77 1.12 1.05 1.83 1.80 1.87 2.22 2.28 2.90 2.41 2.35 1.34 2.29 1.85 1.52 1.40 1.50 2.49 1.13 2.17 2.62 2.49 3.59 3.25 3.31 3.75 4.24 3.71 3.22
SL_Ratio
nan nan nan 3.3 3.6 3.6 4.0 3.8 4.6 3.8 nan nan nan nan nan nan nan nan nan nan nan nan nan nan nan nan nan nan nan nan nan nan nan nan nan nan nan nan nan nan nan nan nan nan
2.9 nan nan 3.3 nan nan nan nan nan nan nan nan nan nan nan nan nan nan nan nan nan nan nan nan nan nan nan nan 3.2 nan nan nan nan nan nan nan nan nan nan nan nan nan nan nan
4.6 nan 0.0 5.1 3.1 nan nan nan nan 4.1 nan nan nan nan nan nan nan nan nan nan nan nan nan nan nan nan nan 3.1 3.4 3.2 2.7 nan nan nan nan nan nan nan nan nan nan nan nan nan
3.9 3.8 6.7 3.6 nan nan nan nan nan nan nan nan nan nan nan nan 3.3 nan nan nan nan nan nan nan nan nan nan 2.5 2.4 2.6 3.8 nan nan 2.5 2.5 3.3 2.0 3.3 2.9 3.0 3.1 3.3 3.3 nan
4.8 4.3 nan nan nan 3.3 3.3 4.3 nan 3.5 nan nan nan nan nan nan nan nan nan nan nan nan nan nan nan nan nan 2.4 2.5 0.0 2.6 2.6 2.6 3.0 3.2 2.8 3.2 3.2 3.2 3.1 3.0 3.1 2.9 3.0
4.6 6.3 6.3 nan nan nan nan 4.5 nan 2.9 3.4 3.6 3.3 4.7 3.2 nan nan nan nan nan nan nan nan nan nan nan nan nan nan nan 2.4 2.9 2.6 2.6 3.0 3.5 3.3 3.4 2.9 3.3 3.0 2.9 3.2 3.0
4.3 5.4 5.1 3.3 nan nan 6.2 4.7 3.2 3.1 3.2 3.6 4.5 3.3 nan nan nan nan nan nan nan nan nan nan nan nan nan nan nan nan nan 2.7 3.0 2.8 2.8 3.0 3.2 3.3 3.1 3.1 3.5 3.1 3.2 3.1
5.5 5.8 6.8 nan nan 5.3 4.4 3.1 nan 2.5 nan 3.2 nan nan nan nan 4.0 nan nan nan nan nan nan nan nan nan nan nan nan nan nan nan 2.8 2.9 5.0 nan 3.1 3.3 3.2 3.4 4.0 3.6 4.2 3.5
4.6 4.8 nan nan 3.2 nan nan 3.3 3.1 3.3 nan nan nan nan nan nan nan nan nan nan nan nan nan nan nan nan 5.0 0.0 nan nan nan nan nan 2.7 nan nan 3.3 3.8 3.6 4.5 4.3 4.8 4.4 4.3
5.1 nan nan nan nan nan nan nan nan nan nan nan 2.5 nan nan nan nan nan nan nan nan nan nan nan nan nan nan nan nan nan 3.3 nan nan 4.1 3.9 4.5 3.8 3.7 4.1 4.2 4.5 4.7 4.8 4.7
4.3 4.3 nan nan nan nan nan nan nan nan nan nan nan nan nan nan nan nan nan nan nan nan nan nan nan nan nan nan nan nan nan nan 3.3 nan 3.2 3.5 3.3 3.5 4.1 4.5 4.6 5.0 4.8 4.7
4.2 nan 3.5 5.0 nan nan nan nan nan nan nan nan nan nan nan nan nan nan nan nan nan nan nan nan nan nan nan nan nan nan 5.0 4.3 3.5 4.3 4.6 4.8 4.8 4.8 nan nan nan nan nan 4.6
3.0 nan nan 5.7 nan nan nan nan nan nan nan nan nan nan nan nan nan nan nan nan nan nan nan nan nan 6.7 3.3 3.4 4.5 5.4 5.9 5.8 5.1 4.6 5.1 5.2 5.1 5.4 5.4 4.5 nan nan nan nan
nan 3.6 5.8 5.9 6.1 nan nan nan nan nan nan nan nan nan 5.0 5.2 nan nan nan nan nan nan nan 3.5 2.8 4.3 5.0 5.1 4.8 5.4 5.8 3.0 4.9 4.8 4.8 4.8 4.9 4.9 4.7 4.9 4.7 4.5 nan nan
nan nan nan 5.0 nan nan nan nan nan nan nan nan nan 5.7 5.8 5.9 nan nan nan nan nan 3.8 3.0 3.5 5.3 5.5 5.0 5.1 5.4 5.5 5.0 4.7 4.8 4.3 3.9 4.3 4.3 4.4 4.6 4.9 4.9 5.1 4.9 4.6
nan nan nan nan nan nan nan nan nan nan 6.0 5.7 5.8 5.8 5.7 5.6 nan 4.2 5.0 5.0 5.2 5.2 5.4 3.9 5.7 5.2 5.3 5.2 5.4 5.5 4.7 3.5 4.4 4.6 4.3 4.3 4.4 4.6 4.8 5.0 4.9 5.0 5.4 5.1
nan 5.0 10.0 nan nan nan nan nan 5.6 5.6 5.7 5.8 5.7 5.3 5.1 5.0 4.8 5.1 5.1 5.0 4.3 4.1 4.4 4.9 4.7 3.4 3.6 4.5 5.5 4.4 4.4 4.4 3.0 4.2 4.4 4.8 4.6 4.7 4.8 5.0 4.8 4.8 4.6 4.1
nan nan nan nan nan 5.4 5.5 5.3 5.6 5.6 6.0 5.8 4.9 4.0 3.9 4.2 5.4 5.1 4.7 4.6 3.8 3.9 4.8 4.5 4.3 4.5 4.4 4.5 5.7 4.7 4.5 4.3 4.2 4.8 4.7 4.4 4.5 4.3 4.4 4.5 4.6 4.6 4.5 4.5
nan nan nan 4.8 5.1 5.3 5.4 5.3 5.3 4.8 4.2 4.4 3.8 3.8 4.0 3.9 4.1 3.9 3.9 3.7 3.8 4.4 4.8 4.4 3.0 4.0 4.5 4.6 4.2 4.2 4.2 4.5 4.7 4.7 4.6 3.1 4.3 4.4 4.5 4.3 4.5 4.3 4.7 4.9
5.0 4.3 4.9 4.9 4.8 4.8 5.0 4.7 4.8 4.7 3.8 3.8 3.7 3.9 4.2 3.9 3.7 3.9 3.9 4.4 4.9 3.9 4.4 4.5 4.5 4.6 4.7 4.4 3.5 4.6 4.4 4.2 4.8 4.1 4.0 4.8 4.1 4.0 4.1 3.1 4.4 4.2 4.0 4.4
4.7 5.1 5.1 5.0 3.7 3.3 3.5 3.4 3.9 4.4 3.9 3.6 3.7 3.9 4.3 4.4 4.2 4.0 4.4 4.2 5.0 5.2 4.6 3.6 3.5 3.7 3.9 4.2 4.0 4.1 4.0 3.9 3.9 4.5 4.6 3.9 3.8 4.0 3.9 3.8 3.9 3.8 4.0 4.2
4.6 4.1 3.6 4.1 4.0 4.1 4.0 3.4 3.9 4.3 4.5 4.1 3.9 3.9 4.8 5.6 5.1 4.9 4.8 4.5 3.9 3.0 3.8 3.6 3.4 3.0 3.2 3.0 4.1 3.7 4.2 4.2 4.2 4.4 4.5 4.0 4.2 4.2 4.0 4.0 4.2 3.9 3.9 4.0
3.3 3.8 3.9 4.2 4.3 3.8 4.0 4.1 4.0 4.3 4.5 4.9 5.1 5.1 4.7 4.4 3.9 4.1 4.4 5.0 3.4 3.0 3.5 3.5 3.0 3.0 3.0 3.5 3.5 3.7 3.8 3.9 4.0 4.3 4.2 4.0 4.0 4.0 4.7 4.6 4.3 4.3 4.1 4.4
4.8 2.5 3.5 3.6 3.6 nan 5.0 5.0 4.5 4.8 4.7 5.5 5.1 4.5 3.9 3.6 3.1 3.2 3.3 3.0 3.0 2.9 3.0 3.3 3.2 3.0 3.0 3.5 3.8 3.9 4.0 4.1 4.3 4.2 4.7 3.1 3.7 4.1 4.5 4.2 4.9 4.4 4.4 4.4
3.8 3.6 3.7 4.1 4.0 3.8 5.2 4.0 4.1 4.3 3.9 3.4 5.0 2.7 2.9 3.1 3.6 3.6 3.3 3.4 3.1 3.2 3.6 3.1 3.0 3.0 3.6 3.7 4.0 4.2 4.3 4.6 4.4 4.6 5.2 4.6 4.5 4.2 4.1 4.4 4.6 4.3 4.5 4.4
6.7 4.0 4.0 5.5 3.9 3.9 3.9 3.8 4.1 4.1 3.7 3.7 3.5 3.2 3.1 3.5 3.5 3.7 3.6 3.2 3.8 3.1 4.1 3.8 3.9 3.9 3.9 4.3 4.3 4.5 4.9 5.3 5.2 5.3 5.2 5.2 5.0 5.4 5.2 5.1 4.6 4.3 4.2 4.1
3.4 3.3 3.0 2.9 2.9 3.1 4.3 4.6 4.2 4.2 3.4 3.6 3.8 3.5 3.6 3.6 3.7 3.5 3.2 3.9 4.1 4.2 4.2 4.1 4.1 3.4 4.5 4.5 4.7 5.0 5.3 5.2 3.4 6.0 5.3 5.0 5.2 4.7 4.9 4.5 4.1 3.8 4.3 4.7